Hourly Data Report for January 16, 2022

LA RONGE RCS
SASKATCHEWAN
Current Station Operator: ECCC - MSC

55°08'47.020" N
105°16'13.030" W
378.60 m
4064149
71586
XOX

Download Data

Hourly Data (January 2022)
Hourly Data Report for January 16, 2022
TIME
LST
Temp Definition
°C
Dew Point Definition
°C
Rel Hum Definition
%
Precip. Amount Definition
mm

Wind Dir Definition
10's deg

Wind Spd Definition
km/h
Visibility Definition
km
Stn Press Definition
kPa
Hmdx Definition


Wind Chill Definition


Weather Definition


00:00 -2.8 -5.8 80 0.0 1 13   96.37   -7 LegendNANA
01:00 -4.1 -6.7 82 0.0 1 14   96.40   -9 LegendNANA
02:00 -5.0 -7.4 83 0.0 2 12   96.49   -10 LegendNANA
03:00 -6.0 -8.6 82 0.0 36 13   96.60   -11 LegendNANA
04:00 -6.7 -9.1 83 0.0 1 8   96.64   -11 LegendNANA
05:00 -7.0 -9.2 85 0.0 1 6   96.65   -10 LegendNANA
06:00 -7.4 -9.4 86 0.0 2 9   96.69   -12 LegendNANA
07:00 -7.6 -9.5 86 0.0 0 1   96.68   -8 LegendNANA
08:00 -8.1 -9.7 88 0.0 13 8   96.58   -12 LegendNANA
09:00 -8.7 -10.0 90 0.0 8 7   96.59   -13 LegendNANA
10:00 -9.0 -10.6 89 0.5 13 7   96.55   -13 LegendNANA
11:00 -9.4 -11.3 86 0.4 6 10   96.51   -15 LegendNANA
12:00 -12.0 -14.0 85 0.0 5 15   96.47   -19 LegendNANA
13:00 -12.8 -15.4 81 0.0 5 12   96.48   -19 LegendNANA
14:00 -12.4 -15.0 81 0.0 5 9   96.50   -18 LegendNANA
15:00 -12.6 -14.7 84 0.0 4 5   96.51   -16 LegendNANA
16:00 -12.6 -14.2 88 0.0 6 10   96.61   -18 LegendNANA
17:00 -12.4 -13.7 90 0.0 3 5   96.68   -16 LegendNANA
18:00 -12.3 -14.0 88 0.0 5 9   96.69   -18 LegendNANA
19:00 -13.5 -16.1 81 0.0 3 17   96.66   -22 LegendNANA
20:00 -14.3 -17.5 77 0.0 5 14   96.80   -22 LegendNANA
21:00 -16.3 -19.8 74 0.0 5 15   96.81   -25 LegendNANA
22:00 -18.3 -21.5 76 0.0 6 13   96.81   -26 LegendNANA
23:00 -19.6 -22.5 78 0.0 6 7   96.85   -25 LegendNANA

Notes on Data Quality.

Legend

  • E = Estimated
  • M = Missing
  • NA = Not Available*
  • [empty] = Indicates an unobserved value
Date modified: